�������r�C�����j�^�v���󋵏��
Date,Time,5�C6���@���p�r�C��,����,����(m/s)
2021/12/02,00:00,4.0,���k��,6.3
2021/12/02,00:10,3.9,��,6.3
2021/12/02,00:20,4.0,���k��,6.4
2021/12/02,00:30,4.0,���k��,8.6
2021/12/02,00:40,4.0,��,7.0
2021/12/02,00:50,3.9,��,6.7
2021/12/02,01:00,4.0,���k��,5.3
2021/12/02,01:10,4.0,���k��,4.7
2021/12/02,01:20,3.8,���k��,5.1
2021/12/02,01:30,3.8,��,8.2
2021/12/02,01:40,3.9,���k��,8.1
2021/12/02,01:50,3.9,��,6.5
2021/12/02,02:00,3.8,���k��,4.4
2021/12/02,02:10,4.0,��,4.8
2021/12/02,02:20,4.1,��,7.2
2021/12/02,02:30,4.0,��,6.0
2021/12/02,02:40,3.8,��,5.1
2021/12/02,02:50,3.8,��,5.4
2021/12/02,03:00,4.0,��,4.1
2021/12/02,03:10,4.0,��,6.1
2021/12/02,03:20,3.9,��,4.3
2021/12/02,03:30,3.9,��,6.2
2021/12/02,03:40,3.9,��,6.7
2021/12/02,03:50,3.9,��,6.2
2021/12/02,04:00,3.9,��,5.0
2021/12/02,04:10,4.0,���k��,4.3
2021/12/02,04:20,3.9,��,5.0
2021/12/02,04:30,4.1,���쐼,4.3
2021/12/02,04:40,3.9,��,7.0
2021/12/02,04:50,3.9,���쐼,6.6
2021/12/02,05:00,3.9,��,8.9
2021/12/02,05:10,4.1,���쐼,7.4
2021/12/02,05:20,4.0,��,9.1
2021/12/02,05:30,4.1,���쐼,7.2
2021/12/02,05:40,3.9,���쐼,6.4
2021/12/02,05:50,3.9,���쐼,8.4
2021/12/02,06:00,4.0,���쐼,6.5
2021/12/02,06:10,3.9,���쐼,4.5
2021/12/02,06:20,3.9,��,6.3
2021/12/02,06:30,4.0,���쐼,6.9
2021/12/02,06:40,3.9,��,5.9
2021/12/02,06:50,4.0,��,5.1
2021/12/02,07:00,4.0,��,4.5
2021/12/02,07:10,4.0,��,4.1
2021/12/02,07:20,4.1,��,3.6
2021/12/02,07:30,4.0,���k��,3.6
2021/12/02,07:40,4.0,���k��,2.3
2021/12/02,07:50,3.8,���k��,1.7
2021/12/02,08:00,3.8,���쐼,1.4
2021/12/02,08:10,4.0,���k��,1.9
2021/12/02,08:20,4.1,�쐼,1.5
2021/12/02,08:30,3.9,��,0.9
2021/12/02,08:40,3.8,�k,2.0
2021/12/02,08:50,4.0,�k,2.3
2021/12/02,09:00,4.0,�k��,2.6
2021/12/02,09:10,3.8,���k��,2.0
2021/12/02,09:20,3.9,�k�k��,0.6
2021/12/02,09:30,3.8,��,4.2
2021/12/02,09:40,4.1,��,5.8
2021/12/02,09:50,3.9,��,5.9
2021/12/02,10:00,3.9,��,6.5
2021/12/02,10:10,3.7,��,7.7
2021/12/02,10:20,4.0,��,6.3
2021/12/02,10:30,4.0,��,7.9
2021/12/02,10:40,3.8,��,8.0
2021/12/02,10:50,4.1,��,9.3
2021/12/02,11:00,3.8,��,6.1
2021/12/02,11:10,4.0,��,5.4
2021/12/02,11:20,3.9,��,3.9
2021/12/02,11:30,3.8,���k��,6.9
2021/12/02,11:40,3.9,�k��,5.7
2021/12/02,11:50,3.9,�k�k��,4.0
2021/12/02,12:00,4.0,�k��,2.6
2021/12/02,12:10,4.0,��,3.7
2021/12/02,12:20,3.9,��,5.0
2021/12/02,12:30,4.0,��,8.7
2021/12/02,12:40,4.0,���k��,7.4
2021/12/02,12:50,3.9,��,6.2
2021/12/02,13:00,4.1,��,8.1
2021/12/02,13:10,4.0,�k��,4.9
2021/12/02,13:20,4.1,�k��,2.0
2021/12/02,13:30,3.9,�k�k��,2.8
2021/12/02,13:40,4.0,�k,2.5
2021/12/02,13:50,4.0,�k�k��,1.7
2021/12/02,14:00,3.9,���k��,2.0
2021/12/02,14:10,4.0,���k��,3.3
2021/12/02,14:20,3.9,��,3.4
2021/12/02,14:30,3.9,�쓌,1.4
2021/12/02,14:40,4.1,��쓌,1.7
2021/12/02,14:50,4.2,���쐼,0.6
2021/12/02,15:00,3.9,�k��,3.6
2021/12/02,15:10,3.8,���k��,3.6
2021/12/02,15:20,3.9,���k��,3.0
2021/12/02,15:30,3.9,���k��,5.6
2021/12/02,15:40,3.9,��,7.0
2021/12/02,15:50,4.0,��,6.5
2021/12/02,16:00,3.7,��,7.4
2021/12/02,16:10,3.9,���쐼,6.9
2021/12/02,16:20,3.9,���쐼,7.3
2021/12/02,16:30,4.0,���쐼,6.8
2021/12/02,16:40,3.9,���쐼,6.8
2021/12/02,16:50,3.9,���쐼,7.6
2021/12/02,17:00,3.8,���쐼,5.7
2021/12/02,17:10,3.9,��,6.0
2021/12/02,17:20,3.9,��,6.7
2021/12/02,17:30,4.0,���k��,7.7
2021/12/02,17:40,4.0,��,6.5
2021/12/02,17:50,3.8,��,7.3
2021/12/02,18:00,4.1,��,8.5
2021/12/02,18:10,3.8,��,6.5
2021/12/02,18:20,3.9,��,6.2
2021/12/02,18:30,3.8,��,5.0
2021/12/02,18:40,3.8,��,5.9
2021/12/02,18:50,3.9,��,7.4
2021/12/02,19:00,4.0,��,6.1
2021/12/02,19:10,3.8,��,5.2
2021/12/02,19:20,3.8,��,5.0
2021/12/02,19:30,4.0,��,4.0
2021/12/02,19:40,3.8,���쐼,3.3
2021/12/02,19:50,4.0,���쐼,4.0
2021/12/02,20:00,3.9,�쐼,5.1
2021/12/02,20:10,4.1,�쐼,5.5
2021/12/02,20:20,4.1,��쐼,5.4
2021/12/02,20:30,3.8,��쐼,5.5
2021/12/02,20:40,4.0,��,5.2
2021/12/02,20:50,4.0,��,4.1
2021/12/02,21:00,4.0,��,3.8
2021/12/02,21:10,4.0,��,4.1
2021/12/02,21:20,4.2,��쐼,3.6
2021/12/02,21:30,3.8,�쐼,2.0
2021/12/02,21:40,3.9,�쐼,2.2
2021/12/02,21:50,3.9,�쐼,3.4
2021/12/02,22:00,4.0,�쐼,3.2
2021/12/02,22:10,3.9,�쐼,2.5
2021/12/02,22:20,4.1,�쐼,2.0
2021/12/02,22:30,4.0,�쐼,2.6
2021/12/02,22:40,4.0,�쐼,3.5
2021/12/02,22:50,3.7,�쐼,4.3
2021/12/02,23:00,4.0,��쐼,5.0
2021/12/02,23:10,4.0,��,5.4
2021/12/02,23:20,3.9,��쐼,5.1
2021/12/02,23:30,4.0,��쐼,5.4
2021/12/02,23:40,3.8,��쐼,4.8
2021/12/02,23:50,4.1,�쐼,3.9
